{"data":{"norad_id":68810,"intl_designator":"2026-089J","name":"STARLINK-37447","alt_names":[],"object_type":"PAYLOAD","status":"ACTIVE","operator":null,"country":"US","launch_date":"2026-04-23","launch_site_code":"AFWTR","launch_vehicle":null,"mission":null,"orbit_class":"UNKNOWN","rcs_meters":null,"size_class":null,"mass_kg":null,"dimensions":null,"purposes":["comms"],"wikipedia_slug":null,"has_3d_model":false,"image_url":null,"decayed_at":null,"tle_current":{"epoch":"2026-09-19T19:48:33.677856Z","epoch_age_seconds":98400,"freshness":"FRESH","line1":"1 68810U 26089J   26262.82538979  .00013802  00000+0  42901-3 0  9999","line2":"2 68810  97.2852 108.5682 0002520  83.3210 276.8319 15.33447555 23153","mean_motion":15.33447555,"eccentricity":0.000252,"inclination_deg":97.2852,"raan_deg":108.5682,"arg_perigee_deg":83.321,"mean_anomaly_deg":276.8319,"bstar":0.00042901,"rev_number":2315,"period_min":93.906048192173,"perigee_km":463.81096711798,"apogee_km":467.26017809458,"semimajor_km":6843.6725726063,"source":"CELESTRAK","updated_at":"2026-09-20T09:00:44.007565Z"}}}